TimeEDT,TemperatureF,Dew PointF,Humidity,Sea Level PressureIn,VisibilityMPH,Wind Direction,Wind SpeedMPH,Gust SpeedMPH,PrecipitationIn,Events,Conditions,WindDirDegrees,DateUTC
12:54 AM,62.1,60.1,93,29.94,8.0,Calm,Calm,-,0.01,,Clear,0,2013-10-17 04:54:00
1:25 AM,60.8,57.2,88,29.93,2.5,Calm,Calm,-,N/A,,Clear,0,2013-10-17 05:25:00
1:33 AM,60.8,57.2,88,29.94,5.0,Calm,Calm,-,N/A,,Clear,0,2013-10-17 05:33:00
1:54 AM,61.0,59.0,93,29.94,8.0,Calm,Calm,-,N/A,,Clear,0,2013-10-17 05:54:00
2:37 AM,60.8,57.2,88,29.93,3.0,Calm,Calm,-,0.01,,Scattered Clouds,0,2013-10-17 06:37:00
2:52 AM,60.8,57.2,88,29.93,6.0,SSW,3.5,-,0.01,,Mostly Cloudy,200,2013-10-17 06:52:00
2:54 AM,60.1,59.0,96,29.93,6.0,SSW,3.5,-,0.01,,Mostly Cloudy,210,2013-10-17 06:54:00
3:38 AM,60.8,60.8,100,29.92,2.0,SSW,4.6,-,N/A,,Overcast,200,2013-10-17 07:38:00
3:45 AM,60.8,60.8,100,29.92,1.0,SSW,5.8,-,N/A,,Overcast,200,2013-10-17 07:45:00
3:54 AM,61.0,60.1,97,29.92,0.8,SSW,6.9,-,N/A,,Overcast,210,2013-10-17 07:54:00
4:54 AM,62.1,61.0,96,29.91,0.5,SW,4.6,-,0.01,Fog,Fog,230,2013-10-17 08:54:00
5:31 AM,62.6,60.8,94,29.92,1.2,SSW,3.5,-,N/A,,Overcast,210,2013-10-17 09:31:00
5:54 AM,62.1,61.0,96,29.92,1.8,South,3.5,-,N/A,,Overcast,190,2013-10-17 09:54:00
6:16 AM,62.6,60.8,94,29.92,1.0,South,3.5,-,N/A,,Overcast,180,2013-10-17 10:16:00
6:26 AM,62.6,60.8,94,29.92,0.8,South,3.5,-,N/A,,Overcast,180,2013-10-17 10:26:00
6:41 AM,62.6,60.8,94,29.93,1.0,SSW,4.6,-,N/A,,Overcast,200,2013-10-17 10:41:00
6:54 AM,62.1,61.0,96,29.92,1.8,Calm,Calm,-,0.01,,Overcast,0,2013-10-17 10:54:00
7:02 AM,62.6,60.8,94,29.92,2.5,Calm,Calm,-,N/A,,Overcast,0,2013-10-17 11:02:00
7:13 AM,62.6,60.8,94,29.92,3.0,South,3.5,-,0.00,Rain,Light Rain,190,2013-10-17 11:13:00
7:35 AM,62.6,60.8,94,29.93,2.5,Calm,Calm,-,0.00,Rain,Light Rain,0,2013-10-17 11:35:00
7:54 AM,62.1,62.1,100,29.93,2.5,South,3.5,-,0.00,,Overcast,190,2013-10-17 11:54:00
8:23 AM,62.6,62.6,100,29.93,3.0,SSW,4.6,-,N/A,,Overcast,200,2013-10-17 12:23:00
8:54 AM,64.0,63.0,96,29.93,4.0,South,3.5,-,N/A,,Overcast,190,2013-10-17 12:54:00
9:10 AM,64.4,62.6,94,29.93,5.0,SSW,4.6,-,0.01,,Mostly Cloudy,200,2013-10-17 13:10:00
9:54 AM,64.9,64.0,97,29.93,6.0,South,5.8,-,0.01,,Scattered Clouds,190,2013-10-17 13:54:00
10:06 AM,66.2,64.4,94,29.93,6.0,South,5.8,-,N/A,,Mostly Cloudy,190,2013-10-17 14:06:00
10:13 AM,66.2,64.4,94,29.93,7.0,South,4.6,-,N/A,,Scattered Clouds,180,2013-10-17 14:13:00
10:23 AM,66.2,64.4,94,29.93,8.0,South,4.6,-,N/A,,Mostly Cloudy,190,2013-10-17 14:23:00
10:54 AM,70.0,64.0,81,29.92,10.0,SSW,8.1,-,N/A,,Scattered Clouds,210,2013-10-17 14:54:00
11:54 AM,73.9,63.0,68,29.90,10.0,SW,6.9,-,0.01,,Scattered Clouds,220,2013-10-17 15:54:00
12:16 PM,75.2,62.6,65,29.89,10.0,SSW,9.2,-,N/A,,Mostly Cloudy,210,2013-10-17 16:16:00
12:24 PM,75.2,62.6,65,29.89,10.0,South,9.2,-,N/A,,Scattered Clouds,190,2013-10-17 16:24:00
12:54 PM,75.0,63.0,66,29.88,10.0,SW,10.4,-,N/A,,Scattered Clouds,230,2013-10-17 16:54:00
1:18 PM,75.2,62.6,65,29.87,10.0,Variable,6.9,-,N/A,,Mostly Cloudy,0,2013-10-17 17:18:00
1:26 PM,75.2,62.6,65,29.87,10.0,SSW,9.2,-,0.01,,Scattered Clouds,200,2013-10-17 17:26:00
1:54 PM,77.0,62.1,60,29.85,10.0,SW,8.1,-,0.01,,Scattered Clouds,220,2013-10-17 17:54:00
2:54 PM,75.9,62.1,62,29.84,10.0,South,10.4,-,N/A,,Scattered Clouds,180,2013-10-17 18:54:00
3:54 PM,75.0,62.1,64,29.82,10.0,SSW,8.1,-,0.01,,Partly Cloudy,210,2013-10-17 19:54:00
4:54 PM,73.0,63.0,71,29.81,10.0,SSW,11.5,-,0.01,,Scattered Clouds,200,2013-10-17 20:54:00
5:54 PM,71.1,63.0,75,29.80,10.0,South,6.9,-,N/A,,Overcast,190,2013-10-17 21:54:00
6:54 PM,68.0,63.0,84,29.80,10.0,South,6.9,-,0.01,,Partly Cloudy,170,2013-10-17 22:54:00
7:54 PM,68.0,62.1,81,29.79,10.0,South,9.2,-,N/A,,Overcast,180,2013-10-17 23:54:00
8:54 PM,68.0,62.1,81,29.79,10.0,South,9.2,-,0.01,,Partly Cloudy,180,2013-10-18 00:54:00
9:54 PM,68.0,63.0,84,29.79,10.0,SSW,10.4,-,N/A,,Overcast,200,2013-10-18 01:54:00
10:54 PM,68.0,63.0,84,29.79,10.0,SSW,9.2,-,0.01,,Overcast,210,2013-10-18 02:54:00
11:54 PM,68.0,64.0,87,29.78,10.0,SW,5.8,-,0.01,,Overcast,230,2013-10-18 03:54:00